MyTimes logo

TIMES

Webb Imagery

7/02/2015
Channel Challenge
550m Swim / 2.0km Run - Local Residents

(Click on competitor name to view personalised results)

Name
Race #
Category
Time
(h:mm:ss)
Avg Speed
km/hr
OAll
Place
Cat
Place
ROWE Mark#112Local Senior Male0:13:02"11.7 " 11
BUTT Chloe#457Local Senior Female0:13:20"11.5 " 21
VAN AGTMAAL Beau#109Local Senior Male0:13:26"11.4 " 32
HIATT Wally#184Local Senior Male0:13:39"11.2 " 43
HARRISON Hamish#143Local Senior Male0:14:24"10.6 " 54
DALLINGER Andrew#56Local Senior Male0:14:36"10.5 " 65
LUMSDEN Kai#606Local Junior Male0:14:59"10.2 " 71
CORBETT Jim#706Local Male 50+0:14:59"10.2 " 81
TILLEY Justin#100Local Senior Male0:15:10"10.1 " 96
HETEBRUEG Andre#108Local Senior Male0:15:32"9.8 " 107
FLEISNER Rob#714Local Male 50+0:15:37"9.8 " 112
ROLLAND Thierry#689Local Male 40-490:15:40"9.8 " 121
FISHER Surrey#608Local Junior Male0:15:44"9.7 " 132
MATTHEWS Jack#84Local Senior Male0:15:48"9.7 " 148
HOMER Jack#129Local Senior Male0:15:53"9.6 " 159
BUXTON Shane#146Local Senior Male0:15:57"9.6 " 1610
LOWE Alex#609Local Junior Male0:15:57"9.6 " 173
TURNER Georgia#433Local Senior Female0:16:10"9.5 " 182
EDWARDS Aaron#771Local Junior Male0:16:22"9.3 " 194
LITTLE Will#778Local Junior Male0:16:25"9.3 " 205
HURLEY Tristan#75Local Senior Male0:16:26"9.3 " 2111
ANDERS Joel#166Local Senior Male0:16:28"9.3 " 2212
TURNER Peter#727Local Male 50+0:16:30"9.3 " 233
MAHON Debbi#464Local Senior Female0:16:37"9.2 " 243
THOMAS Luke#115Local Senior Male0:16:38"9.2 " 2513
ABLETT Zac#198Local Senior Male0:16:40"9.2 " 2614
ONLEY Thomas#110Local Senior Male0:16:41"9.2 " 2715
EVANS Brad#793Local Male 40-490:16:43"9.2 " 282
ROSS Kyle#751Local Junior Male0:16:43"9.2 " 296
OBRIEN Nathaniel#144Local Senior Male0:16:54"9.1 " 3016
MAIER David#787Local Male 50+0:16:55"9.0 " 314
COLLINS Todd#157Local Senior Male0:16:57"9.0 " 3217
HERBERT Duncan#676Local Male 40-490:16:58"9.0 " 333
BARRY Bill#39Local Senior Male0:17:16"8.9 " 3418
HOMER Ivan#735Local Male 50+0:17:20"8.8 " 355
TWEDDLE Damian#142Local Senior Male0:17:21"8.8 " 3619
WATSON Russell#681Local Male 40-490:17:23"8.8 " 374
YUSKO Bill#728Local Male 50+0:17:29"8.8 " 386
HEWTON Brad#195Local Senior Male0:17:34"8.7 " 3920
HARRIS Kris#679Local Male 40-490:17:38"8.7 " 405
FELSTEAD Anthony#125Local Senior Male0:17:39"8.7 " 4121
MINTER Kris#102Local Senior Male0:17:40"8.7 " 4222
NEWSTEAD Laura#435Local Senior Female0:17:46"8.6 " 434
LUNN Daniel#187Local Senior Male0:17:51"8.6 " 4423
PIERA Joel#772Local Junior Male0:17:52"8.6 " 457
CHISHOLM Andy#685Local Male 40-490:17:53"8.6 " 466
O'DONOHUE Mark#730Local Male 50+0:17:53"8.6 " 477
DAFF Geoff#777Local Male 50+0:17:54"8.5 " 488
THERIAULT David#712Local Male 50+0:17:55"8.5 " 499
REID Cooper#610Local Junior Male0:17:57"8.5 " 508
FISHER Kevin#718Local Male 50+0:17:59"8.5 " 5110
PAYNE Luke#149Local Senior Male0:18:00"8.5 " 5224
BEISCHER Caroline#513Local Female 40-490:18:00"8.5 " 531
BROWN Sean#798Local Male 40-490:18:07"8.4 " 547
FARRELL Barry#131Local Senior Male0:18:11"8.4 " 5525
OLSEN Andrea#503Local Female 40-490:18:12"8.4 " 562
HUMPHRY Kirk#673Local Male 40-490:18:13"8.4 " 578
THOMAS Brodie#48Local Senior Male0:18:24"8.3 " 5826
SMART Robert#106Local Senior Male0:18:25"8.3 " 5927
WINSTANLEY James#59Local Senior Male0:18:42"8.2 " 6028
LANGFORD Imigen#377Local Junior Female0:18:45"8.2 " 611
DALLINGER Chris#83Local Senior Male0:18:48"8.1 " 6229
HUGHES Olivia#372Local Junior Female0:18:51"8.1 " 632
MARSHALL Luke#123Local Senior Male0:18:58"8.1 " 6430
CAMERON Jane#361Local Female 50+0:18:58"8.1 " 651
SUTHERLAND Bailey#764Local Junior Male0:18:58"8.1 " 669
COLLETT Ollie#612Local Junior Male0:18:58"8.1 " 6710
STUBBLES Marcus#658Local Male 40-490:19:03"8.0 " 689
SUNDERLAND Greg#756Local Male 40-490:19:04"8.0 " 6910
CROOKS Matt#789Local Male 40-490:19:09"8.0 " 7011
LAMB Simon#190Local Senior Male0:19:15"7.9 " 7131
WATTS Justin#680Local Male 40-490:19:18"7.9 " 7212
HILL Jacob#45Local Senior Male0:19:19"7.9 " 7332
TAYLOR Jack#770Local Junior Male0:19:20"7.9 " 7411
THOMPSON Jorgie Mae#376Local Junior Female0:19:33"7.8 " 753
MOORE Emma#329Local Female 40-490:19:34"7.8 " 763
KING Nathan#663Local Male 40-490:19:34"7.8 " 7713
JOHNSTONE Chris#755Local Male 40-490:19:37"7.8 " 7814
STEWART Alastair#174Local Senior Male0:19:41"7.8 " 7933
HIBBLE Jenny#332Local Female 50+0:19:41"7.8 " 802
SUTHERLAND Michael#765Local Male 40-490:19:47"7.7 " 8115
MCDONALD Kellie#444Local Senior Female0:19:54"7.7 " 825
COSTELLO Rachel#305Local Female 40-490:19:54"7.7 " 834
BAIRD Andrew#796Local Male 40-490:19:54"7.7 " 8416
ALLEN-RYAN Zakk#752Local Junior Male0:19:58"7.7 " 8512
SCICLUNA Todd#55Local Senior Male0:20:01"7.6 " 8634
LAW Sonya#304Local Female 40-490:20:02"7.6 " 875
JOHNSON Travis#797Local Male 40-490:20:10"7.6 " 8817
LUCK Jarrod#662Local Male 40-490:20:12"7.6 " 8918
SCHMIDT David#168Local Senior Male0:20:16"7.5 " 9035
BEHRE Michaela#408Local Senior Female0:20:22"7.5 " 916
HOGAN Krystal#509Local Senior Female0:20:28"7.5 " 927
HARRIS Kirsty#455Local Senior Female0:20:33"7.4 " 938
PAYNTER Brian#656Local Male 40-490:20:34"7.4 " 9419
MARSHALL Sarah#309Local Female 40-490:20:36"7.4 " 956
CAMILLE Daven#103Local Senior Male0:20:38"7.4 " 9636
HONEY Phoebe#406Local Senior Female0:20:43"7.4 " 979
PAYNE Jacqui#478Local Senior Female0:20:44"7.4 " 9810
BREWIN Hayley#470Local Senior Female0:20:53"7.3 " 9911
WARE Matthew#665Local Male 40-490:20:54"7.3 " 10020
COLE Nicholas#753Local Male 40-490:21:02"7.3 " 10121
POWELL Ebony#449Local Senior Female0:21:08"7.2 " 10212
ADNAM Sian#357Local Female 50+0:21:09"7.2 " 1033
FISHER Callum#622Local Junior Male0:21:09"7.2 " 10413
LOWE Andrew#719Local Male 50+0:21:11"7.2 " 10511
DAKIN Andrew#666Local Male 40-490:21:11"7.2 " 10622
TRANTER Bridget#487Local Senior Female0:21:13"7.2 " 10713
BUCHANAN Kathryn#427Local Senior Female0:21:16"7.2 " 10814
DAFF Jessica#499Local Senior Female0:21:20"7.2 " 10915
CROOKS Kirsty#314Local Female 40-490:21:23"7.2 " 1107
MATTHEWS Robert#724Local Male 50+0:21:23"7.2 " 11112
LINDSAY Heather#318Local Female 40-490:21:25"7.1 " 1128
WILIAMS Taylah#489Local Junior Female0:21:26"7.1 " 1134
HOMER Finn#619Local Junior Male0:21:29"7.1 " 11414
FLEISNER Paul#709Local Male 50+0:21:33"7.1 " 11513
STELZER Hermann#726Local Male 50+0:21:33"7.1 " 11614
MERRICK Jenny#342Local Female 50+0:21:41"7.1 " 1174
ROSA Hannah#418Local Senior Female0:21:42"7.1 " 11816
TYRRELL Sarah#429Local Senior Female0:22:07"6.9 " 11917
BEAUMONT Ashley#773Local Male 40-490:22:10"6.9 " 12023
DYNON Paul#630Local Male 40-490:22:14"6.9 " 12124
HOLLINS Jenny#303Local Female 40-490:22:16"6.9 " 1229
VANDERSTAAY Colin#760Local Male 40-490:22:16"6.9 " 12325
VAN DER HEYDEN Natalie#437Local Senior Female0:22:28"6.8 " 12418
MARLBOROUGH Kirra#510Local Senior Female0:22:38"6.8 " 12519
WILLIAMS Peter#761Local Male 40-490:22:45"6.7 " 12626
DICKIE Bonny#508Local Junior Female0:22:49"6.7 " 1275
NEWMAN Nadine#324Local Female 40-490:23:06"6.6 " 12810
BAXTER Virginia#490Local Female 40-490:23:07"6.6 " 12911
OHASTON Pete#759Local Male 50+0:23:15"6.6 " 13015
WRIGHT Phil#725Local Male 50+0:23:16"6.6 " 13116
MC FEE Patricia#355Local Female 50+0:23:17"6.6 " 1325
WILLIS Eddy#498Local Female 50+0:23:18"6.6 " 1336
ADAMS Murray#723Local Male 50+0:23:21"6.6 " 13417
WRIGHT Melanie#447Local Senior Female0:23:38"6.5 " 13520
TOOHEY Lyn#354Local Female 50+0:23:59"6.4 " 1367
CARTER Verena#481Local Senior Female0:24:11"6.3 " 13721
HERINGTON Suzie#477Local Female 40-490:24:15"6.3 " 13812
MOWLAM Fleur#389Local Senior Female0:24:19"6.3 " 13922
FURNISS Simon#649Local Male 40-490:24:26"6.3 " 14027
LAW Nicholas#621Local Junior Male0:24:26"6.3 " 14115
CAIN Greg#743Local Male 50+0:24:32"6.2 " 14218
ASHWORTH Scott#152Local Senior Male0:24:33"6.2 " 14337
VAN DER WEERD Melina#482Local Senior Female0:24:35"6.2 " 14423
DALLINGER Brian#747Local Male 50+0:24:57"6.1 " 14519
LAW Matthew#672Local Male 40-490:24:59"6.1 " 14628
BLACKMAN Julie#453Local Senior Female0:25:16"6.1 " 14724
DRENNAN Amanda#426Local Senior Female0:25:49"5.9 " 14825
KEWMING Robyn#365Local Female 50+0:25:49"5.9 " 1498
POTTS Lisa#412Local Senior Female0:26:02"5.9 " 15026
CRUGNALE Jordan#321Local Female 40-490:26:12"5.8 " 15113
MC GENNISKEN Kerry#322Local Female 40-490:26:18"5.8 " 15214
CROKER Sally#312Local Female 40-490:27:21"5.6 " 15315
NEAL Susan#345Local Female 50+0:27:44"5.5 " 1549
BOWERING Helen#360Local Female 50+0:28:09"5.4 " 15510
DAFF Jan#500Local Female 50+0:29:07"5.3 " 15611
CHAMBERS Ron#697Local Male 50+0:29:19"5.2 " 15720
KENNEDY Elisa#428Local Senior Female0:30:21"5.0 " 15827
HORROCKS Mark#769Local Male 50+0:31:26"4.9 " 15921
GOODE Tom#716Local Male 50+0:31:28"4.9 " 16022
REEK George#745Local Male 50+0:32:19"4.7 " 16123
STAINTHORPE Sophie#465Local Senior Female0:33:35"4.6 " 16228
ORWIN Mike The M#736Local Male 50+0:35:12"4.3 " 16324
DOOLAN Kate#381Local Senior Female0:44:29"3.4 " 16429